ROMMA est une association bénévole à but non lucratif. Votre soutien est indispensable : ADHERER à ROMMA ou FAIRE un DON

Val-d'Arly - (73, Savoie)

Beaufortain (2050 m)   Longitude: 06° 35' 21" E   Latitude: 45° 46' 53" N Station romma n°118
 

Détail journalier du     <<     >>

Température Precipitation Humidité Vent Dir Rafale Dir. rafale Ensol.
Heure (°C) (mm) (%) (km/h) (km/h) (min)
01:00 1.20968ESE13ESE0
02:00 1.10967SE13SE0
03:00 0.40961SE5SE0
04:00 0.30973SE10SO0
05:00 0.409712OSO18OSO0
06:00 0.709511O18OSO0
07:00 1.10884O10O0
08:00 2.80792ONO6S50
09:00 3.20713ESE6SE60
10:00 3.30765SSO10SSO60
11:00 4.60726SO11SSO60
12:00 5.60684OSO10SO60
13:00 5.705410O19O60
14:00 6.40657ENE15O50
15:00 6.60687NE16NNO10
16:00 6.006810NNE21NNE60
17:00 6.405812NNE23NNE60
18:00 6.406610N18NNO20
19:00 6.10686NE13NNE0
20:00 5.80736NNO10N10
21:00 4.60747N13N0
22:00 4.10797ONO13ONO0
23:00 3.308811OSO19OSO0
minuit 3.708615OSO23OSO0

Graphique du 01-05-2019

 

Serveur OMMA